Regional Weather Roundup
Issued by NWS Mobile, AL

Home | Current Version | Previous Version | Text Only | Print | Product List | Glossary On
Versions: 1 2 3 4 5 6 7 8 9 10 11 12 13 14 15 16 17 18 19 20 21 22 23 24 25 26 27 28
000
ASUS44 KMOB 010612
RWRMOB
REGIONAL WEATHER ROUNDUP
NATIONAL WEATHER SERVICE MOBILE AL
100 AM CDT WED JUN 01 2016

NOTE: "FAIR" INDICATES FEW OR NO CLOUDS BELOW 12,000 FEET WITH NO
      SIGNIFICANT WEATHER AND/OR OBSTRUCTIONS TO VISIBILITY.

  * THESE STATIONS ARE PART OF THE UNIVERSITY OF SOUTH ALABAMA
    MESONET AND ARE NOT UNDER NWS OR FAA QUALITY CONTROL.

ALZ061>064-010700-
COASTAL ALABAMA

CITY           SKY/WX    TMP DP  RH WIND       PRES   REMARKS
MOBILE REG APT PTCLDY    69  69 100 W3        29.96S
6HR MIN TEMP:  69; 6HR MAX TEMP:  75;

BROOKLEY FIELD CLEAR     72  71  97 CALM      29.95F
6HR MIN TEMP:  72; 6HR MAX TEMP:  82;

USA CAMPUS*    NOT AVBL
DOG RIVER*     NOT AVBL


CITY           SKY/WX    TMP DP  RH WIND       PRES   REMARKS
MOUNT VERNON*  NOT AVBL
SARALAND*      NOT AVBL
BAY MINETTE*   NOT AVBL
LOXLEY*        NOT AVBL
ROBERTSDALE*   NOT AVBL
FAIRHOPE*      NOT AVBL
ELBERTA*       NOT AVBL
FOLEY*         NOT AVBL
GRAND BAY*     NOT AVBL
DAUPHIN ISLND* NOT AVBL
BON SCOUR NWR* NOT AVBL
GULF SHORES    CLEAR     68  68 100 E9        29.94F

$$

ALZ051>060-010700-
INTERIOR SOUTHWEST AND SOUTH CENTRAL ALABAMA

CITY           SKY/WX    TMP DP  RH WIND       PRES   REMARKS
GREENVILLE     PTCLDY    70  66  87 CALM      29.95F
6HR MIN TEMP:  70; 6HR MAX TEMP:  80;

EVERGREEN      PTCLDY    68  66  93 CALM      29.96F
6HR MIN TEMP:  67; 6HR MAX TEMP:  77;

CASTLEBERRY*   NOT AVBL
ATMORE*        NOT AVBL
DIXIE*         NOT AVBL
ANDALUSIA/OPP  CLEAR     71  66  84 CALM      29.95F
6HR MIN TEMP:  71; 6HR MAX TEMP:  81;

ANDALUSIA*     NOT AVBL
FLORALA APT    CLEAR     67  65  93 CALM      29.97F
6HR MIN TEMP:  67; 6HR MAX TEMP:  73;

FLORALA*       NOT AVBL

$$

FLZ001>006-010700-
WESTERN FLORIDA PANHANDLE

CITY           SKY/WX    TMP DP  RH WIND       PRES   REMARKS
PENSACOLA      CLEAR     74  68  81 CALM      29.94F
6HR MIN TEMP:  73; 6HR MAX TEMP:  78;

NAS PENSACOLA  NOT AVBL
MILTON         CLEAR     68  68 100 CALM      29.96S FOG
6HR MIN TEMP:  68; 6HR MAX TEMP:  72; 6HR PCP: TRACE;

WHTNG S FIELD  MOCLDY    72  70  93 E3        29.95F
6HR MIN TEMP:  72; 6HR MAX TEMP:  75;



CITY           SKY/WX    TMP DP  RH WIND       PRES   REMARKS
WALNUT HILL*   NOT AVBL
JAY*           NOT AVBL
DUKE FIELD     CLEAR     70  68  95 S2        29.95F
CRESTVIEW      CLEAR     68  66  93 CALM      29.97F FOG
6HR MIN TEMP:  68; 6HR MAX TEMP:  72;

VALPARAISO     PTCLDY    72  68  87 N2        29.94F
6HR MIN TEMP:  72; 6HR MAX TEMP:  77;

DESTIN         PTCLDY    81  76  84 SW3       29.95F
6HR MIN TEMP:  79; 6HR MAX TEMP:  84;


$$

MSZ076-079-010700-
INTERIOR SOUTHEAST MISSISSIPPI

CITY           SKY/WX    TMP DP  RH WIND       PRES   REMARKS
LEAKESVILLE*   NOT AVBL
AGRICOLA*      NOT AVBL

$$

MARINE OBSERVATIONS

STATION/POSITION TIME  TEMP    WIND        PRES    WAVE
                       AIR SEA DIR/SP/G            HT/PER
                 (UTC) (F)     (DEG/KT/KT) (MB)    (FT/S)
PASCAGOULA       0500   81     230/  6/  9 1014.1R
PETIT BOIS ISLND 0500   81     240/ 10/ 11 1014.9R
GRAND BAY        0400   81     250/  5     1016.0R
KATRINA CUT      0500   81     250/  8     1014.9S
CEDAR POINT      0500   81     240/  9     1014.2S
E DAUPHIN ISLAND 0600   80     250/  6/  7 1013.8F
MIDDLE BAY LIGHT 0500   82     230/  6     1014.6S
USCG MOBILE BAY  0500   76 83  350/  1/  3 1014.7F
STATE DOCKS      0500   75 82              1014.1F
MEAHER PARK      0500   74        CALM     1013.9F
WEEKS BAY        0400   73                   N/A
FORT MORGAN      0500   81     280/  8/  8 1014.0S
12 S ORANGE BCH  0550   81 83              1013.4F   1
PENSACOLA BAY    0500      81  240/  1/  2 1014.4F
64 S DAUPHIN ISL 0600   80 81  210/  6/  8 1014.0F

$$

SELECTED LOCATIONS ACROSS THE REGION

CITY           SKY/WX    TMP DP  RH WIND       PRES   REMARKS
NEW ORLEANS    PTCLDY    77  69  76 SW9       29.93F
GULFPORT       CLEAR     73  69  87 CALM      29.94S
PASCAGOULA AP  PTCLDY    69  68  96 CALM      29.95S FOG
PASCAGOULA*    NOT AVBL
HATTIESBURG    CLEAR     71  66  84 CALM      29.95F
LAUREL         PTCLDY    68  63  83 CALM      29.96F
MERIDIAN       PTCLDY    70  65  84 CALM      29.95F
JACKSON        HVY RAIN  72  66  81 SE15      29.94F
MONTGOMERY     CLEAR     72  66  81 S3        29.94F
TROY           CLEAR     69  67  93 CALM      29.96F
KINSTON*       NOT AVBL
GENEVA*        NOT AVBL
ASHFORD*       NOT AVBL
DOTHAN         CLEAR     73  66  78 W3        29.99F
PANAMA CITY    CLEAR     72  71  97 CALM      29.94F

$$





USA.gov is the U.S. government's official web portal to all federal, state and local government web resources and services.